Vorticity
nan nan nan nan nan nan nan nan nan nan nan nan nan nan nan nan nan nan nan nan nan nan nan nan nan nan nan nan nan nan nan nan nan nan nan nan nan nan nan nan nan nan nan nan nan
nan 6 7 7 7 7 7 8 9 9 8 8 7 7 7 11 15 7 12 12 10 3 3 6 8 5 4 7 6 8 7 9 10 7 8 6 5 7 10 1 6 8 14 15 nan
nan 8 7 7 7 7 7 7 9 10 9 8 8 8 8 10 12 14 18 11 3 2 5 6 7 6 5 7 7 6 4 8 11 11 7 3 6 10 10 7 9 10 7 4 nan
nan 8 7 6 6 6 6 7 9 11 11 9 8 8 10 12 4 9 17 16 7 4 5 7 6 6 8 8 7 4 6 9 11 11 8 8 3 10 7 5 12 14 7 4 nan
nan 7 7 6 6 6 7 8 9 11 12 10 9 9 9 8 6 11 18 9 5 10 6 5 5 5 8 11 8 6 10 10 10 10 7 9 6 7 9 9 12 10 5 4 nan
nan 6 7 7 5 7 8 7 10 12 12 12 10 8 8 4 12 12 10 4 5 7 8 6 7 7 7 8 8 8 11 7 7 8 8 7 7 5 10 20 12 5 3 5 nan
nan 6 6 6 7 8 8 9 12 16 14 13 9 7 8 6 8 11 5 7 7 6 6 6 7 10 8 6 8 8 7 6 9 7 7 7 5 7 8 15 9 4 4 5 nan
nan 7 7 7 8 9 9 10 16 20 16 12 7 8 4 11 9 5 4 8 9 6 6 9 9 8 9 7 6 9 6 7 7 7 9 8 7 8 9 3 6 9 6 6 nan
nan 8 8 8 9 9 8 15 26 19 12 6 4 8 9 9 9 8 8 8 7 7 8 9 9 7 8 7 2 9 9 5 7 10 9 7 8 11 8 5 8 7 8 7 nan
nan 7 8 7 7 9 17 23 14 7 5 5 5 7 13 8 11 9 8 8 7 9 9 6 8 6 5 9 9 7 8 8 9 8 8 5 9 11 6 7 11 9 5 9 nan
nan 8 7 7 10 18 22 11 4 6 10 8 3 2 7 12 11 9 9 6 7 9 9 7 9 8 8 4 6 7 8 8 10 10 10 7 7 9 7 4 8 7 6 9 nan
nan 7 8 10 13 25 17 4 10 7 10 11 5 6 8 10 6 10 11 8 9 7 3 11 10 9 10 9 7 5 7 8 9 12 6 11 8 11 12 8 8 6 6 7 nan
nan 7 8 9 25 20 7 8 5 9 12 11 14 8 12 10 5 8 7 7 7 8 10 5 7 13 8 5 10 7 9 8 9 10 7 9 13 11 9 9 8 8 7 9 nan
nan 7 7 21 23 9 11 6 7 9 6 13 10 11 13 7 12 12 5 6 11 11 7 0 11 10 8 7 9 7 13 8 8 6 9 6 11 10 17 12 7 7 6 6 nan
nan 9 15 21 13 8 6 6 13 10 6 14 11 14 13 7 7 10 8 10 13 9 6 9 10 8 8 11 6 13 14 12 7 6 8 7 12 9 11 15 16 11 9 7 nan
nan 11 22 18 11 5 2 14 12 10 8 9 14 9 6 6 7 12 10 7 11 9 4 11 8 10 8 13 7 9 6 9 10 9 9 15 7 7 10 10 14 14 12 9 nan
nan 23 24 9 5 8 12 12 10 6 5 8 11 10 8 10 6 10 12 6 3 6 8 14 12 9 11 8 7 5 6 6 7 12 9 8 8 9 7 12 15 16 10 11 nan
nan 35 21 2 4 9 14 11 8 6 7 7 9 15 11 6 10 8 7 7 5 8 13 8 11 15 8 11 9 6 7 8 11 6 11 8 4 10 9 12 13 15 18 14 nan
nan 24 10 12 10 7 12 10 10 5 5 8 12 14 11 9 10 12 9 10 11 6 5 4 7 10 12 13 11 8 9 9 6 10 13 5 4 13 9 10 14 13 16 15 nan
nan 10 7 16 12 9 10 7 8 5 6 11 10 6 9 11 11 12 8 7 15 11 5 4 12 8 9 6 10 16 4 5 10 14 7 8 12 10 7 12 9 11 9 12 nan
nan 11 7 11 10 11 11 8 8 11 9 7 9 8 9 10 10 8 6 10 11 14 12 7 10 4 7 14 7 3 4 10 16 9 10 9 10 13 12 11 11 6 10 11 nan
nan 7 10 9 11 10 8 9 8 10 10 12 12 12 8 7 11 12 10 10 13 13 9 6 6 15 5 7 12 10 9 7 9 8 8 12 8 12 13 13 13 12 9 8 nan
nan 8 10 12 7 9 10 10 7 8 10 12 11 14 12 9 15 10 7 3 10 16 10 11 5 7 9 12 16 13 8 6 7 16 13 3 9 6 9 13 14 12 9 11 nan
nan 9 10 10 11 8 10 11 8 11 12 10 11 8 11 11 10 10 10 6 6 10 15 17 11 12 9 5 6 10 10 8 6 9 13 2 7 6 12 10 12 10 12 10 nan
nan 14 9 4 8 9 9 10 9 9 9 9 14 7 9 9 9 11 9 8 8 9 16 11 9 7 7 13 10 8 10 9 6 9 9 14 8 9 13 14 9 10 11 11 nan
nan 8 12 11 8 8 11 11 7 11 8 7 7 7 14 12 5 3 9 11 5 5 9 12 16 9 8 15 11 10 12 7 6 8 11 14 9 12 10 14 10 11 9 9 nan
nan nan nan nan nan nan nan nan nan nan nan nan nan nan nan nan nan nan nan nan nan nan nan nan nan nan nan nan nan nan nan nan nan nan nan nan nan nan nan nan nan nan nan nan nan
CAPE
1 2 1 1 1 1 1 0 0 0 0 0 0 1 1 1 0 0 0 0 0 41 110 0 0 0 11 147 29 12 0 0 6 19 8 26 288 106 50 28 34 33 0 0 0
0 0 1 0 0 0 1 1 0 0 0 1 1 0 2 0 0 0 0 0 182 160 0 0 0 0 0 364 168 10 0 22 2 0 0 84 300 209 77 53 81 49 0 0 0
5 3 0 1 1 1 0 0 0 0 2 0 0 2 0 0 0 0 0 0 30 1 0 0 0 0 0 320 319 267 34 109 164 0 0 109 67 124 86 43 69 17 28 0 0
2 0 1 1 1 1 1 0 0 0 1 0 1 1 0 0 0 0 0 12 64 0 0 0 0 0 0 8 301 295 273 518 315 109 58 76 77 233 34 56 56 35 38 0 0
0 0 0 1 0 0 1 0 0 0 0 1 0 0 0 0 0 0 460 428 0 0 0 0 0 0 0 89 302 313 4 636 247 163 71 44 72 175 160 154 79 44 29 0 0
1 0 0 0 1 2 4 2 0 1 1 1 0 0 0 0 0 0 0 0 0 0 0 0 0 0 210 195 265 294 694 218 87 75 70 113 179 118 119 78 106 56 12 0 0
1 2 1 3 3 2 2 3 0 1 1 1 0 0 0 0 0 0 0 0 0 0 0 0 0 0 143 322 44 115 241 217 543 119 55 76 42 82 28 72 79 30 0 0 0
2 2 4 3 3 3 3 3 2 0 0 1 0 0 0 0 0 0 0 0 0 0 0 0 0 0 142 99 24 157 7 24 170 341 196 9 0 37 9 18 33 47 2 0 0
2 2 3 5 4 4 3 2 0 0 1 0 0 0 0 0 0 0 0 0 0 0 0 0 0 0 6 0 0 13 6 2 2 304 206 60 0 25 101 25 37 27 18 5 0
1 1 2 5 0 0 1 0 0 0 0 0 0 0 0 0 0 0 0 0 0 0 0 0 0 0 0 0 0 0 3 19 0 252 90 64 0 18 36 21 33 6 24 25 0
2 2 4 0 0 0 0 0 0 0 0 0 0 0 0 0 0 0 0 0 0 0 0 0 0 0 0 0 0 0 0 0 71 258 72 156 38 4 24 0 3 23 46 36 0
3 3 0 0 0 0 0 0 0 0 0 0 0 0 0 0 0 0 0 0 0 0 0 0 0 0 0 0 0 0 0 1 88 280 175 262 129 35 15 0 0 0 0 11 1
4 5 0 0 0 0 0 0 0 0 0 0 0 0 0 0 0 0 0 0 0 0 0 0 0 0 0 0 0 0 0 24 65 385 438 311 140 187 76 0 0 0 0 0 1
4 3 0 0 0 0 0 0 0 0 0 0 0 0 0 0 0 0 0 0 0 0 0 0 0 0 0 0 0 0 0 10 365 273 51 58 0 1 21 40 2 0 0 0 12
3 1 0 1 0 0 0 0 0 0 0 0 0 0 0 0 0 0 0 0 0 0 0 0 0 0 0 0 0 0 0 0 438 149 134 183 15 0 0 1 7 0 0 0 17
3 0 1 0 0 0 0 0 0 0 0 0 0 0 0 0 0 0 0 0 0 0 0 0 0 0 0 0 0 0 0 0 0 0 41 12 62 13 1 0 0 0 0 1 26
0 0 1 0 0 0 0 0 0 0 0 0 0 0 0 0 0 0 0 0 0 0 0 0 0 0 0 0 0 0 0 0 0 41 29 0 83 55 1 0 0 0 0 0 20
0 0 0 0 0 0 0 0 0 0 0 0 0 0 0 0 0 0 0 0 0 0 0 0 0 0 0 0 0 0 0 0 0 0 0 13 59 21 0 0 0 0 0 0 39
0 0 0 0 0 0 0 0 0 0 0 0 0 0 0 0 0 0 0 0 0 0 0 0 0 0 0 0 0 0 0 0 0 0 0 0 0 0 4 29 10 2 0 0 16
0 0 0 0 0 0 0 0 0 0 0 0 0 0 0 0 0 0 0 0 0 0 0 0 0 0 0 0 0 0 0 0 0 0 0 0 0 0 0 63 52 4 4 0 0
0 0 0 0 0 0 0 0 0 0 0 0 0 0 0 0 0 0 0 0 0 0 0 0 0 0 0 0 0 0 0 0 0 0 0 0 0 0 0 11 134 71 21 58 1
0 0 0 0 0 0 0 0 0 0 0 0 0 0 0 0 0 0 0 0 0 0 0 0 0 0 0 0 0 0 0 0 0 0 0 0 0 0 0 1 68 128 39 47 127
0 0 0 0 0 0 0 0 0 0 0 0 0 0 0 0 0 0 0 0 0 0 0 0 0 0 0 0 0 0 0 0 0 0 0 0 0 0 46 122 255 216 55 0 0
0 0 0 0 0 0 0 0 0 0 0 0 0 0 0 0 0 0 0 0 0 0 67 0 0 0 0 0 0 0 0 0 0 0 0 0 0 27 80 138 282 303 241 32 58
0 0 0 0 0 0 0 0 0 0 0 0 0 0 0 0 0 0 0 0 0 0 0 0 0 0 0 0 0 0 0 0 0 0 0 0 0 37 55 80 129 162 182 346 764
0 0 0 0 0 0 0 0 0 0 0 0 0 0 0 0 0 0 0 0 0 0 0 0 0 0 0 0 0 0 0 0 0 0 0 0 15 0 0 21 107 149 268 679 952
0 0 0 0 0 0 0 0 0 0 0 0 0 0 0 0 0 0 0 0 0 0 0 0 0 0 0 0 0 0 0 0 0 0 0 0 0 0 136 145 116 145 374 837 1023